Find Astra 3A

NORAD ID: 27400 Int'l Des: 2002-015 Owner: SESA Country: L operational
HEOCIRCULAR

Current View

Loading 3D Globe...

About Astra 3A

Description loading...

Upcoming Passes

Passes for default location (London). Set your location on the main map for personalized predictions.

Altitude History

Loading altitude history...

Two-Line Element Set

1 27400U 02015B 26150.59402133 -.00000226 00000-0 00000-0 0 9993
2 27400 10.5006 48.0673 0001995 296.9195 284.9720 0.99090851 88391
Epoch: May 30, 2026 • Age: 17 hours

Current Status

Altitude 36128.2 km
Velocity 3.06 km/s
Sub-Earth Point 9.78°N, 165.37°E
Launch Date Mar 29, 2002
Age 24.1 years
Type other

Technical Details

Classification Payload
Mass 865.00 kg
Dry Mass 700.00 kg
Total Mass 1495.00 kg
Length 8.00 m
Diameter 2.20 m
Span 8.00 m
Shape Cyl
Manufacturer BOES
Bus Type HS-376HP
Phase Status In Orbit
Owner/State SESA/L

Most Searched